DateTimeUTC,F1_A11,F1_S11,BsB_S11,BsG_S11,BsR_S11,BbsB_S11,BbsG_S11,BbsR_S11,BaB_A11,BaG_A11,BaR_A11,Tu_S11,T_S11,Uu_S11,U_S11,P_S11,T1_A11
2021-07-04T18:00:00Z,00000200,20000000,,,,,,,0000.27,-000.01,-000.13,19.8,26.2,10.3,07.0,0670.0,31.2
2021-07-04T18:01:00Z,00000200,20000000,,,,,,,-000.10,-000.08,0000.15,19.8,26.2,10.3,07.0,0670.0,31.2
2021-07-04T18:02:00Z,00000200,20000000,,,,,,,-000.01,0000.19,-000.20,19.8,26.2,10.3,07.0,0670.0,31.2
2021-07-04T18:03:00Z,00000200,60000000,,,,,,,-000.21,0000.14,0000.10,19.8,26.2,10.3,07.0,0670.0,31.2
2021-07-04T18:04:00Z,00000200,40000000,-000.16,-000.22,0000.06,0000.05,0000.18,-000.17,0000.37,-000.26,-000.06,19.9,26.1,10.3,07.1,0670.9,31.2
2021-07-04T18:05:00Z,00000200,00000000,0001.37,0000.38,0000.42,0000.38,0000.41,0000.02,0000.13,-000.11,0000.17,19.9,26.0,10.4,07.2,0671.0,31.2
2021-07-04T18:06:00Z,00000200,00000000,0000.14,0000.16,0000.25,-000.68,0000.37,0000.16,-000.35,0000.15,0000.07,19.9,26.0,10.3,07.1,0670.9,31.2
2021-07-04T18:07:00Z,00000200,00000000,0000.67,0000.29,0000.10,0000.90,0000.33,-000.03,0000.40,0000.18,0000.03,19.9,26.0,10.5,07.2,0671.0,31.2
2021-07-04T18:08:00Z,00000200,00000000,0000.34,0000.07,0000.31,0000.66,0000.22,0000.17,0000.15,-000.22,-000.33,19.9,26.0,10.5,07.3,0671.0,31.3
2021-07-04T18:09:00Z,00000200,00000000,0000.56,0000.47,0000.18,0000.53,0000.52,-000.08,0000.21,0000.37,0000.85,19.9,26.0,10.6,07.3,0671.0,31.2
2021-07-04T18:10:00Z,00000200,00000000,0000.60,0000.20,0000.27,0000.01,0000.18,-000.02,0000.05,0000.38,-000.52,19.9,26.0,10.5,07.3,0670.9,31.2
2021-07-04T18:11:00Z,00000200,00000000,0000.34,0000.33,-000.07,0000.20,0000.38,-000.09,-000.01,-000.16,0000.50,19.9,26.0,10.4,07.2,0671.0,31.2
2021-07-04T18:12:00Z,00000200,00000000,0001.01,0000.08,-000.06,-000.50,0000.23,-000.18,0000.21,0000.18,-000.24,19.9,26.0,10.5,07.3,0670.9,31.2
2021-07-04T18:13:00Z,00000200,00000000,0000.34,0000.22,0000.44,-000.07,0000.15,0000.15,0000.03,0000.02,0000.10,19.9,26.0,10.4,07.2,0670.9,31.2
2021-07-04T18:14:00Z,00000200,00000000,0000.69,0000.14,0000.55,-000.02,0000.03,0000.02,-000.11,-000.05,0000.17,20.0,26.0,10.4,07.2,0670.9,31.2
2021-07-04T18:15:00Z,00000200,00000000,-000.12,0000.48,0000.43,0000.24,0000.52,0000.09,0000.06,0000.11,-000.09,19.9,26.0,10.5,07.3,0670.9,31.2
2021-07-04T18:16:00Z,00000200,00000000,0000.09,0000.33,0000.05,-000.21,0000.23,0000.29,0000.37,0000.54,0000.16,20.0,26.0,10.5,07.3,0670.9,31.2
2021-07-04T18:17:00Z,00000200,00000000,0000.11,0000.25,0000.38,0000.39,0000.26,0000.13,-000.07,-000.49,-000.17,20.0,26.0,10.5,07.3,0670.9,31.2
2021-07-04T18:18:00Z,00000200,00000000,0000.67,0000.12,0000.51,0000.70,-000.01,-000.03,0000.39,0000.43,0000.51,19.9,26.0,10.7,07.4,0671.0,31.2
2021-07-04T18:19:00Z,00000200,00000000,0000.70,0000.24,0000.36,0000.09,0000.24,-000.04,-000.08,0000.29,-000.14,20.0,26.0,10.6,07.3,0670.9,31.2
2021-07-04T18:20:00Z,00000200,00000000,0000.68,0000.34,0000.23,0000.47,0000.00,0000.05,0000.22,-000.41,0000.11,20.0,26.0,10.6,07.3,0670.9,31.2
2021-07-04T18:21:00Z,00000200,00000000,0000.28,0000.14,0000.32,0000.85,0000.29,-000.02,-000.07,0000.30,-000.15,20.0,26.0,10.5,07.3,0670.9,31.2
2021-07-04T18:22:00Z,00000200,00000000,0000.19,0000.40,0000.19,0000.23,0000.25,0000.11,-000.08,-000.25,0000.23,20.0,26.0,10.5,07.3,0670.9,31.2
2021-07-04T18:23:00Z,00000200,00000000,0000.58,0000.20,0000.04,-000.41,0000.34,-000.26,-000.14,0000.38,0000.13,20.0,26.0,10.4,07.2,0670.8,31.2
2021-07-04T18:24:00Z,00000200,00000000,-000.21,0000.37,0000.22,0000.17,0000.23,0000.14,0000.80,-000.04,0000.27,20.0,26.0,10.5,07.3,0670.9,31.2
2021-07-04T18:25:00Z,00000200,00000000,0000.37,0000.16,0000.23,-000.11,0000.52,-000.09,-000.16,-000.05,-000.11,20.0,26.0,10.6,07.4,0670.9,31.2
2021-07-04T18:26:00Z,00000200,00000000,0000.28,0000.07,0000.50,0000.78,0000.33,-000.11,-000.04,0000.56,0000.13,20.0,26.0,10.5,07.3,0670.8,31.2
2021-07-04T18:27:00Z,00000200,00000000,0000.74,0000.53,0000.15,0000.71,0000.16,-000.31,0000.34,-000.15,0000.10,20.0,26.0,10.6,07.3,0670.9,31.2
2021-07-04T18:28:00Z,00000200,00000000,0001.33,-000.01,0000.49,0000.18,0000.19,-000.26,-000.06,-000.04,-000.06,20.0,26.0,10.7,07.4,0670.8,31.2
2021-07-04T18:29:00Z,00000200,00000000,0000.49,0000.35,0000.28,-000.45,0000.32,-000.05,0000.25,0000.21,-000.28,20.0,26.0,10.6,07.3,0670.8,31.2
2021-07-04T18:30:00Z,00000200,00000000,0000.71,0000.38,-000.16,0000.39,0000.09,-000.08,-000.09,0000.42,0000.28,20.0,26.0,10.6,07.3,0670.8,31.2
2021-07-04T18:31:00Z,00000200,00000000,0000.13,0000.33,0000.13,0000.56,0000.36,-000.22,0000.22,-000.60,0000.36,20.0,26.0,10.8,07.5,0670.8,31.2
2021-07-04T18:32:00Z,00000200,00000000,0000.85,0000.28,0000.24,-000.38,0000.32,-000.41,0000.03,0000.46,-000.02,20.0,26.0,10.8,07.5,0670.8,31.2
2021-07-04T18:33:00Z,00000200,00000000,0000.32,0000.38,0000.67,-000.11,0000.11,0000.32,0000.07,-000.11,-000.05,20.0,26.0,10.9,07.6,0670.8,31.2
2021-07-04T18:34:00Z,00000200,00000000,0000.14,0000.41,0000.20,0000.08,0000.04,0000.20,-000.02,0000.30,0000.50,20.0,26.0,11.0,07.6,0670.8,31.2
2021-07-04T18:35:00Z,00000200,00000000,0000.56,0000.14,0000.40,-000.19,0000.23,-000.31,0000.31,-000.04,-000.49,20.0,26.0,10.8,07.5,0670.7,31.2
2021-07-04T18:36:00Z,00000200,00000000,0000.22,0000.15,0000.42,0000.30,0000.38,-000.21,0000.16,0000.39,0000.36,20.0,26.0,11.0,07.6,0670.8,31.2
2021-07-04T18:37:00Z,00000200,00000000,0000.11,0000.58,0000.39,0000.04,0000.20,0000.01,0000.11,0000.24,0000.39,20.0,26.0,10.9,07.6,0670.8,31.2
2021-07-04T18:38:00Z,00000200,00000000,0000.37,0000.01,0000.39,0000.15,0000.19,-000.19,0000.22,-000.29,-000.45,20.0,26.0,11.0,07.6,0670.8,31.2
2021-07-04T18:39:00Z,00000200,00000000,0000.54,0000.24,-000.06,-000.10,0000.26,-000.25,-000.15,-000.03,0000.14,20.0,26.1,10.9,07.6,0670.8,31.2
2021-07-04T18:40:00Z,00000200,00000000,0000.28,-000.00,0000.09,0000.16,0000.10,0000.19,0000.29,0000.04,0000.12,20.0,26.1,10.9,07.6,0670.8,31.2
2021-07-04T18:41:00Z,00000200,00000000,0000.66,0000.53,0000.31,0000.42,0000.35,0000.11,-000.08,0000.25,-000.50,20.0,26.1,11.0,07.6,0670.8,31.2
2021-07-04T18:42:00Z,00000200,00000000,0000.45,0000.07,0000.02,0000.18,0000.28,0000.04,0000.38,0000.36,0000.72,20.0,26.0,11.0,07.6,0670.8,31.2
2021-07-04T18:43:00Z,00000200,00000000,0000.79,0000.38,0000.04,0000.32,0000.40,0000.27,-000.16,0000.10,0000.03,20.0,26.0,11.1,07.7,0670.8,31.2
2021-07-04T18:44:00Z,00000200,00000000,0001.26,0000.37,0000.32,-000.39,0000.25,0000.05,0000.42,0000.57,0000.28,20.0,26.1,11.1,07.7,0670.7,31.2
2021-07-04T18:45:00Z,00000200,00000000,0000.23,0000.34,0000.44,0000.26,0000.07,0000.15,-000.18,-000.72,-000.22,20.0,26.1,11.1,07.7,0670.7,31.2
2021-07-04T18:46:00Z,00000200,00000000,-000.09,0000.60,0000.32,0000.07,0000.22,-000.06,-000.16,0000.29,0000.01,20.0,26.1,10.9,07.6,0670.6,31.2
2021-07-04T18:47:00Z,00000200,00000000,0000.34,-000.12,0000.15,-000.28,0000.30,-000.15,0000.17,0000.05,-000.02,20.0,26.1,10.8,07.5,0670.7,31.2
2021-07-04T18:48:00Z,00000200,00000000,0000.61,-000.02,0000.42,0000.26,0000.41,0000.24,0000.00,0000.06,0000.31,20.0,26.1,10.9,07.6,0670.7,31.2
2021-07-04T18:49:00Z,00000200,00000000,0000.19,0000.29,0000.16,0000.05,0000.42,0000.23,0000.11,0000.19,0000.02,20.0,26.1,10.9,07.5,0670.7,31.2
2021-07-04T18:50:00Z,00000200,00000000,0000.18,0000.35,0000.07,0000.23,0000.55,-000.30,-000.03,-000.31,-000.30,20.0,26.1,10.8,07.5,0670.6,31.2
2021-07-04T18:51:00Z,00000200,00000000,0000.84,0000.28,0000.47,-000.07,0000.17,-000.01,0000.13,-000.05,0000.01,20.0,26.1,10.8,07.5,0670.6,31.2
2021-07-04T18:52:00Z,00000200,00000000,0000.61,0000.24,0000.14,-000.19,0000.32,-000.16,-000.18,0000.30,0000.17,20.0,26.1,10.7,07.5,0670.6,31.2
2021-07-04T18:53:00Z,00000200,00000000,0000.09,0000.18,0000.11,-000.09,0000.35,0000.03,0000.41,0000.47,0000.33,20.0,26.1,10.8,07.5,0670.6,31.2
2021-07-04T18:54:00Z,00000200,00000000,0000.81,-000.11,0000.29,-000.14,0000.34,0000.28,0000.06,-000.35,-000.33,20.0,26.1,10.9,07.6,0670.6,31.2
2021-07-04T18:55:00Z,00000200,00000000,0000.38,0000.51,0000.23,0000.31,0000.17,-000.16,-000.08,0000.02,0000.18,20.1,26.1,10.8,07.5,0670.6,31.2
2021-07-04T18:56:00Z,00000200,00000000,0000.65,0000.15,0000.01,-000.17,0000.33,0000.04,0000.30,-000.04,0000.04,20.0,26.1,10.8,07.5,0670.6,31.2
2021-07-04T18:57:00Z,00000200,40000000,,,,,,,-000.05,0000.10,0000.17,20.1,26.1,10.6,07.4,0670.7,31.2
2021-07-04T18:58:00Z,00000200,60000000,,,,,,,-000.42,-000.25,-000.20,19.9,26.2,10.7,07.3,0669.6,31.2
2021-07-04T18:59:00Z,00000200,20000000,,,,,,,0000.07,0000.05,-000.37,19.9,26.3,10.6,07.2,0669.6,31.2
